Location: Bosmont
(49.7318°N, 3.8587°E)
Time: 22:00:15
(UTC+00:00)

CSL-04 Debris - Pass Details

Date: 08 February 2023
Orbit: 826 x 845 km, 98.8° (Epoch: 28 March)

Event Time Altitude Azimuth Distance (km) Brightness Sun altitude
Exits shadow 18:58:47 26° 143° (SE) 1,575 5.3 -21.0°
Maximum altitude 19:01:48 64° 70° (ENE) 919 4.1 -21.5°
Drops below altitude 10° 19:07:08 10° 350° (N) 2,442 6.7 -22.3°
Sets 19:09:30 0° 348° (NNW) 3,378 7.5 -22.7°
